カタログに戻る

STARLINK-34115

運用中通信VLEO
NORAD 63972·PAYLOAD·🇺🇸 United States

打ち上げ May 13, 2025 から Cape Canaveral Space Force Station

Loading…

次のパス (今後24時間)

TLE

最新Source: CelesTrak SupGP

元期: Sep 14, 2026, 22:40 UTC

1 63972C 25099W   26257.94493056 -.00029733  00000+0 -10768-2 0  2570
2 63972  42.9995 183.7752 0001392 265.5239  46.5851 15.27596318    14

AllMySatでSTARLINK-34115をリアルタイム追跡

Download on the App Store